Location: New Canada
(47.1017°N, 68.5042°W)
Time: 21:26:44
(UTC+00:00)

BlueWalker 3 - Visible Passes

Search period start: 02 December 2023 00:00
Search period end: 12 December 2023 00:00
Orbit: 489 x 503 km, 53.2° (Epoch: 02 December)

Date Brightness Start Highest point End Pass type
(mag) Time Alt. Az. Time Alt. Az. Time Alt. Az.
02 Dec 4.7 08:46:15 17° E 08:46:15 17° E 08:47:19 10° E visible
02 Dec 2.2 10:20:49 35° W 10:22:06 53° SW 10:25:50 10° SE visible
03 Dec 2.1 09:59:18 53° SW 09:59:27 54° SW 10:03:11 10° SE visible
04 Dec 2.9 09:37:48 40° SSE 09:37:48 40° SSE 09:40:30 10° SE visible
05 Dec 4.1 09:16:20 21° SE 09:16:20 21° SE 09:17:48 10° SE visible
06 Dec 5.0 08:54:56 11° SE 08:54:56 11° SE 08:55:03 10° SE visible
